Time,TemperatureF,DewpointF,PressureIn,WindDirection,WindDirectionDegrees,WindSpeedMPH,WindSpeedGustMPH,Humidity,HourlyPrecipIn,Conditions,Clouds,dailyrainin,SoftwareType,DateUTC
2013-07-09 00:00:00,78.9,74.0,29.98,SSW,210,4.0,-999.0,85,-99.99,,,0.00,weatherlink.com 1.10,2013-07-09 04:00:00,
2013-07-09 00:15:00,78.8,74.0,29.98,SSW,207,4.0,-999.0,85,-99.99,,,0.00,weatherlink.com 1.10,2013-07-09 04:15:00,
2013-07-09 00:30:00,78.7,74.0,29.98,South,184,5.0,-999.0,85,-99.99,,,0.00,weatherlink.com 1.10,2013-07-09 04:30:00,
2013-07-09 00:45:00,78.5,74.0,29.98,SSW,197,5.0,-999.0,85,-99.99,,,0.00,weatherlink.com 1.10,2013-07-09 04:45:00,
2013-07-09 01:00:00,78.2,74.0,29.97,SSW,212,5.0,-999.0,86,-99.99,,,0.00,weatherlink.com 1.10,2013-07-09 05:00:00,
2013-07-09 01:15:00,77.9,74.0,29.98,SW,222,4.0,-999.0,86,-99.99,,,0.00,weatherlink.com 1.10,2013-07-09 05:15:00,
2013-07-09 01:30:00,77.7,73.0,29.97,SSW,209,8.0,-999.0,86,-99.99,,,0.00,weatherlink.com 1.10,2013-07-09 05:30:00,
2013-07-09 01:45:00,77.7,73.0,29.97,SW,216,8.0,-999.0,86,-99.99,,,0.00,weatherlink.com 1.10,2013-07-09 05:45:00,
2013-07-09 02:00:00,77.6,73.0,29.97,SW,215,8.0,-999.0,86,-99.99,,,0.00,weatherlink.com 1.10,2013-07-09 06:00:00,
2013-07-09 02:15:00,77.6,73.0,29.96,SSW,203,4.0,-999.0,86,-99.99,,,0.00,weatherlink.com 1.10,2013-07-09 06:15:00,
2013-07-09 02:30:00,77.3,73.0,29.96,SSW,210,5.0,-999.0,86,-99.99,,,0.00,weatherlink.com 1.10,2013-07-09 06:30:00,
2013-07-09 02:45:00,77.1,73.0,29.96,SSW,204,6.0,-999.0,87,-99.99,,,0.00,weatherlink.com 1.10,2013-07-09 06:45:00,
2013-07-09 03:00:00,77.1,73.0,29.96,SSW,192,5.0,-999.0,87,-99.99,,,0.00,weatherlink.com 1.10,2013-07-09 07:00:00,
2013-07-09 03:15:00,76.9,73.0,29.96,SW,216,6.0,-999.0,87,-99.99,,,0.00,weatherlink.com 1.10,2013-07-09 07:15:00,
2013-07-09 03:30:00,76.9,73.0,29.96,SSW,208,5.0,-999.0,87,-99.99,,,0.00,weatherlink.com 1.10,2013-07-09 07:30:00,
2013-07-09 03:45:00,76.9,73.0,29.97,SW,235,5.0,-999.0,87,-99.99,,,0.00,weatherlink.com 1.10,2013-07-09 07:45:00,
2013-07-09 04:00:00,77.0,73.0,29.97,WSW,239,1.0,-999.0,87,-99.99,,,0.00,weatherlink.com 1.10,2013-07-09 08:00:00,
2013-07-09 04:15:00,76.9,73.0,29.97,SW,226,5.0,-999.0,87,-99.99,,,0.00,weatherlink.com 1.10,2013-07-09 08:15:00,
2013-07-09 04:30:00,76.6,73.0,29.97,SW,215,4.0,-999.0,88,-99.99,,,0.00,weatherlink.com 1.10,2013-07-09 08:30:00,
2013-07-09 04:45:00,76.3,73.0,29.96,SSW,209,3.0,-999.0,88,-99.99,,,0.00,weatherlink.com 1.10,2013-07-09 08:45:00,
2013-07-09 05:00:00,76.2,73.0,29.97,SW,218,4.0,-999.0,89,-99.99,,,0.00,weatherlink.com 1.10,2013-07-09 09:00:00,
2013-07-09 05:15:00,76.1,73.0,29.97,SSW,212,1.0,-999.0,89,-99.99,,,0.00,weatherlink.com 1.10,2013-07-09 09:15:00,
2013-07-09 05:30:00,75.9,73.0,29.97,SSW,212,3.0,-999.0,89,-99.99,,,0.00,weatherlink.com 1.10,2013-07-09 09:30:00,
2013-07-09 05:45:00,75.7,73.0,29.97,SSW,212,1.0,-999.0,90,-99.99,,,0.00,weatherlink.com 1.10,2013-07-09 09:45:00,
2013-07-09 06:00:00,75.5,73.0,29.97,SSW,212,3.0,-999.0,90,-99.99,,,0.00,weatherlink.com 1.10,2013-07-09 10:00:00,
2013-07-09 06:15:00,75.2,73.0,29.97,SSW,212,3.0,-999.0,91,-99.99,,,0.00,weatherlink.com 1.10,2013-07-09 10:15:00,
2013-07-09 06:30:00,75.1,72.0,29.97,SSW,212,1.0,-999.0,91,-99.99,,,0.00,weatherlink.com 1.10,2013-07-09 10:30:00,
2013-07-09 06:45:00,75.2,73.0,29.97,SSW,208,2.0,-999.0,91,-99.99,,,0.00,weatherlink.com 1.10,2013-07-09 10:45:00,
2013-07-09 07:00:00,75.5,73.0,29.96,SSW,198,3.0,-999.0,91,-99.99,,,0.00,weatherlink.com 1.10,2013-07-09 11:00:00,
2013-07-09 07:15:00,75.8,73.0,29.96,SW,216,2.0,-999.0,90,-99.99,,,0.00,weatherlink.com 1.10,2013-07-09 11:15:00,
2013-07-09 07:30:00,76.3,73.0,29.96,SSW,202,5.0,-999.0,89,-99.99,,,0.00,weatherlink.com 1.10,2013-07-09 11:30:00,
2013-07-09 07:45:00,76.6,73.0,29.97,SSW,212,7.0,-999.0,89,-99.99,,,0.00,weatherlink.com 1.10,2013-07-09 11:45:00,
2013-07-09 08:00:00,76.7,73.0,29.97,SW,229,5.0,-999.0,88,-99.99,,,0.00,weatherlink.com 1.10,2013-07-09 12:00:00,
2013-07-09 08:15:00,77.0,73.0,29.97,SSW,210,4.0,-999.0,88,-99.99,,,0.00,weatherlink.com 1.10,2013-07-09 12:15:00,
2013-07-09 08:30:00,77.3,73.0,29.97,SW,233,3.0,-999.0,87,-99.99,,,0.00,weatherlink.com 1.10,2013-07-09 12:30:00,
2013-07-09 08:45:00,77.7,73.0,29.97,SW,216,2.0,-999.0,86,-99.99,,,0.00,weatherlink.com 1.10,2013-07-09 12:45:00,
2013-07-09 09:00:00,77.6,73.0,29.97,SW,229,4.0,-999.0,86,-99.99,,,0.00,weatherlink.com 1.10,2013-07-09 13:00:00,
2013-07-09 09:15:00,77.4,73.0,29.98,WSW,244,4.0,-999.0,87,-99.99,,,0.00,weatherlink.com 1.10,2013-07-09 13:15:00,
2013-07-09 09:30:00,77.3,73.0,29.98,SW,219,3.0,-999.0,87,-99.99,,,0.00,weatherlink.com 1.10,2013-07-09 13:30:00,
2013-07-09 09:45:00,77.6,74.0,29.97,SW,217,5.0,-999.0,87,-99.99,,,0.00,weatherlink.com 1.10,2013-07-09 13:45:00,
2013-07-09 10:00:00,78.1,74.0,29.98,SW,229,4.0,-999.0,86,-99.99,,,0.00,weatherlink.com 1.10,2013-07-09 14:00:00,
2013-07-09 10:15:00,78.2,74.0,29.98,SW,216,4.0,-999.0,86,-99.99,,,0.00,weatherlink.com 1.10,2013-07-09 14:15:00,
2013-07-09 10:30:00,78.5,74.0,29.98,SW,225,4.0,-999.0,86,-99.99,,,0.00,weatherlink.com 1.10,2013-07-09 14:30:00,
2013-07-09 10:45:00,80.2,74.0,29.97,SW,223,5.0,-999.0,82,-99.99,,,0.00,weatherlink.com 1.10,2013-07-09 14:45:00,
2013-07-09 11:01:00,81.1,75.0,29.97,WSW,242,7.0,-999.0,82,-99.99,,,0.00,weatherlink.com 1.10,2013-07-09 15:01:00,
2013-07-09 11:16:00,82.1,75.0,29.97,WSW,258,5.0,-999.0,79,-99.99,,,0.00,weatherlink.com 1.10,2013-07-09 15:16:00,
2013-07-09 11:31:00,83.0,76.0,29.97,SW,231,5.0,-999.0,78,-99.99,,,0.00,weatherlink.com 1.10,2013-07-09 15:31:00,
2013-07-09 11:46:00,82.9,75.0,29.97,SW,221,2.0,-999.0,78,-99.99,,,0.00,weatherlink.com 1.10,2013-07-09 15:46:00,
2013-07-09 12:01:00,83.7,76.0,29.97,SW,234,5.0,-999.0,77,-99.99,,,0.00,weatherlink.com 1.10,2013-07-09 16:01:00,
2013-07-09 12:16:00,84.6,76.0,29.97,SW,225,3.0,-999.0,76,-99.99,,,0.00,weatherlink.com 1.10,2013-07-09 16:16:00,
2013-07-09 12:31:00,84.2,76.0,29.97,SW,224,4.0,-999.0,76,-99.99,,,0.00,weatherlink.com 1.10,2013-07-09 16:31:00,
2013-07-09 12:46:00,84.1,76.0,29.97,SW,233,3.0,-999.0,77,-99.99,,,0.00,weatherlink.com 1.10,2013-07-09 16:46:00,
2013-07-09 13:01:00,84.9,76.0,29.98,SW,220,5.0,-999.0,75,-99.99,,,0.00,weatherlink.com 1.10,2013-07-09 17:01:00,
2013-07-09 13:16:00,85.0,76.0,29.96,West,261,1.0,-999.0,75,-99.99,,,0.00,weatherlink.com 1.10,2013-07-09 17:16:00,
2013-07-09 13:31:00,85.5,76.0,29.96,WSW,246,6.0,-999.0,74,-99.99,,,0.00,weatherlink.com 1.10,2013-07-09 17:31:00,
2013-07-09 13:46:00,86.8,76.0,29.95,SW,229,7.0,-999.0,71,-99.99,,,0.00,weatherlink.com 1.10,2013-07-09 17:46:00,
2013-07-09 14:01:00,88.1,78.0,29.95,SW,225,5.0,-999.0,72,-99.99,,,0.00,weatherlink.com 1.10,2013-07-09 18:01:00,
2013-07-09 14:16:00,88.9,78.0,29.94,SW,235,9.0,-999.0,71,-99.99,,,0.00,weatherlink.com 1.10,2013-07-09 18:16:00,
2013-07-09 14:31:00,88.4,78.0,29.94,SW,223,8.0,-999.0,72,-99.99,,,0.00,weatherlink.com 1.10,2013-07-09 18:31:00,
2013-07-09 14:46:00,88.6,78.0,29.93,SSW,206,8.0,-999.0,71,-99.99,,,0.00,weatherlink.com 1.10,2013-07-09 18:46:00,
2013-07-09 15:01:00,88.7,77.0,29.93,SW,232,3.0,-999.0,68,-99.99,,,0.00,weatherlink.com 1.10,2013-07-09 19:01:00,
2013-07-09 15:31:00,90.8,77.0,29.92,WSW,254,12.0,-999.0,64,-99.99,,,0.00,weatherlink.com 1.10,2013-07-09 19:31:00,
2013-07-09 15:46:00,91.0,78.0,29.92,WSW,241,4.0,-999.0,66,-99.99,,,0.00,weatherlink.com 1.10,2013-07-09 19:46:00,
2013-07-09 16:01:00,92.0,78.0,29.92,SSW,207,8.0,-999.0,63,-99.99,,,0.00,weatherlink.com 1.10,2013-07-09 20:01:00,
2013-07-09 16:16:00,90.3,77.0,29.92,West,271,2.0,-999.0,65,-99.99,,,0.00,weatherlink.com 1.10,2013-07-09 20:16:00,
2013-07-09 16:31:00,90.6,77.0,29.91,WSW,239,4.0,-999.0,64,-99.99,,,0.00,weatherlink.com 1.10,2013-07-09 20:31:00,
2013-07-09 16:46:00,90.0,77.0,29.91,SW,220,5.0,-999.0,66,-99.99,,,0.00,weatherlink.com 1.10,2013-07-09 20:46:00,
2013-07-09 17:01:00,89.3,77.0,29.90,SW,215,4.0,-999.0,68,-99.99,,,0.00,weatherlink.com 1.10,2013-07-09 21:01:00,
2013-07-09 17:16:00,89.3,77.0,29.90,SW,230,3.0,-999.0,68,-99.99,,,0.00,weatherlink.com 1.10,2013-07-09 21:16:00,
2013-07-09 17:31:00,87.7,78.0,29.90,SSW,213,3.0,-999.0,72,-99.99,,,0.00,weatherlink.com 1.10,2013-07-09 21:31:00,
2013-07-09 17:46:00,81.6,73.0,29.90,SW,223,2.0,-999.0,74,-99.99,,,0.00,weatherlink.com 1.10,2013-07-09 21:46:00,
2013-07-09 18:01:00,79.9,73.0,29.89,SW,229,0.0,-999.0,80,-99.99,,,0.00,weatherlink.com 1.10,2013-07-09 22:01:00,
2013-07-09 18:16:00,82.0,74.0,29.89,SW,229,0.0,-999.0,77,-99.99,,,0.00,weatherlink.com 1.10,2013-07-09 22:16:00,
2013-07-09 18:31:00,83.0,76.0,29.88,SW,229,0.0,-999.0,79,-99.99,,,0.00,weatherlink.com 1.10,2013-07-09 22:31:00,
2013-07-09 18:46:00,82.5,77.0,29.88,SW,229,0.0,-999.0,82,-99.99,,,0.00,weatherlink.com 1.10,2013-07-09 22:46:00,
2013-07-09 19:01:00,82.3,78.0,29.88,SW,229,0.0,-999.0,86,-99.99,,,0.00,weatherlink.com 1.10,2013-07-09 23:01:00,
2013-07-09 19:16:00,82.5,79.0,29.87,SW,224,4.0,-999.0,88,-99.99,,,0.00,weatherlink.com 1.10,2013-07-09 23:16:00,
2013-07-09 19:31:00,83.3,78.0,29.88,SW,223,3.0,-999.0,84,-99.99,,,0.00,weatherlink.com 1.10,2013-07-09 23:31:00,
2013-07-09 19:46:00,83.3,78.0,29.87,SSW,193,5.0,-999.0,83,-99.99,,,0.00,weatherlink.com 1.10,2013-07-09 23:46:00,
2013-07-09 20:01:00,82.9,78.0,29.87,SSW,201,4.0,-999.0,84,-99.99,,,0.00,weatherlink.com 1.10,2013-07-10 00:01:00,
2013-07-09 20:17:00,82.6,78.0,29.87,SSW,202,2.0,-999.0,85,-99.99,,,0.00,weatherlink.com 1.10,2013-07-10 00:17:00,
2013-07-09 20:32:00,82.7,78.0,29.87,SSW,202,2.0,-999.0,86,-99.99,,,0.00,weatherlink.com 1.10,2013-07-10 00:32:00,
2013-07-09 20:47:00,82.7,78.0,29.87,SSW,202,4.0,-999.0,86,-99.99,,,0.00,weatherlink.com 1.10,2013-07-10 00:47:00,
2013-07-09 21:02:00,82.4,78.0,29.86,SSW,202,2.0,-999.0,86,-99.99,,,0.00,weatherlink.com 1.10,2013-07-10 01:02:00,
2013-07-09 21:17:00,81.8,78.0,29.87,SSW,202,2.0,-999.0,87,-99.99,,,0.00,weatherlink.com 1.10,2013-07-10 01:17:00,
2013-07-09 21:32:00,81.0,77.0,29.87,SSW,202,2.0,-999.0,88,-99.99,,,0.00,weatherlink.com 1.10,2013-07-10 01:32:00,
2013-07-09 21:47:00,80.7,77.0,29.87,SSW,196,3.0,-999.0,88,-99.99,,,0.00,weatherlink.com 1.10,2013-07-10 01:47:00,
2013-07-09 22:02:00,80.8,77.0,29.87,SSW,192,3.0,-999.0,88,-99.99,,,0.00,weatherlink.com 1.10,2013-07-10 02:02:00,
2013-07-09 22:17:00,80.7,77.0,29.88,SSW,199,2.0,-999.0,87,-99.99,,,0.00,weatherlink.com 1.10,2013-07-10 02:17:00,
2013-07-09 22:32:00,80.7,77.0,29.88,SSW,200,4.0,-999.0,87,-99.99,,,0.00,weatherlink.com 1.10,2013-07-10 02:32:00,
2013-07-09 22:47:00,80.7,76.0,29.88,SSW,207,3.0,-999.0,86,-99.99,,,0.00,weatherlink.com 1.10,2013-07-10 02:47:00,
2013-07-09 23:02:00,80.4,76.0,29.88,SSW,194,4.0,-999.0,86,-99.99,,,0.00,weatherlink.com 1.10,2013-07-10 03:02:00,
2013-07-09 23:17:00,79.9,76.0,29.88,SSW,194,3.0,-999.0,87,-99.99,,,0.00,weatherlink.com 1.10,2013-07-10 03:17:00,
2013-07-09 23:32:00,79.5,76.0,29.88,SSW,194,1.0,-999.0,88,-99.99,,,0.00,weatherlink.com 1.10,2013-07-10 03:32:00,
2013-07-09 23:47:00,79.2,75.0,29.88,SSW,194,5.0,-999.0,88,-99.99,,,0.00,weatherlink.com 1.10,2013-07-10 03:47:00,